Miscellaneous Local Product
Issued by NWS North Platte, NE

Home | Current Version | Previous Version | Text Only | Print | Product List | Glossary On
Versions: 1 2 3 4 5 6 7 8 9 10 11 12 13 14 15 16 17 18 19 20 21 22 23 24 25 26 27 28 29 30 31 32 33 34 35 36 37 38 39 40 41 42 43 44 45 46 47 48 49 50
000
AXUS43 KLBF 240210
MISLBF


WESTERN AND NORTH CENTRAL NEBRASKA HOURLY WEATHER ROUNDUP
NATIONAL WEATHER SERVICE NORTH PLATTE NE
900 PM CDT SAT MAY 23 2015

***STATIONS NOT REPORTING VARIABLES SUCH AS SKY/WEATHER OR
PRESSURE ARE PROVIDED BY THE NEBRASKA DEPARTMENT OF
ROADS...RAWS...AND APRS NETWORKS...AND ARE NOT UNDER
NATIONAL WEATHER SERVICE QUALITY CONTROL***

...OBSERVATIONS IN AND NEAR THE EASTERN PANHANDLE OF NEBRASKA...

CITY           SKY/WX    TMP DP  RH WIND       PRES   REMARKS
PINE RIDGE     CLOUDY    54  52  93 E10       29.98S
CHADRON        LGT RAIN  55  53  93 NE9       29.96S
ALLIANCE       CLOUDY    56  53  90 E12       29.95R
SIDNEY         RAIN      51  48  89 W3        29.93F FOG
WHITECLAY        N/A     53  51  90 E5          N/A
BIG SPRINGS      N/A     57  55  94 E18         N/A
$$

...OBSERVATIONS IN NORTH CENTRAL NEBRASKA...

CITY           SKY/WX    TMP DP  RH WIND       PRES   REMARKS
VALENTINE      CLOUDY    55  54  96 E10       30.03R
THEDFORD       CLOUDY    56  55  93 E13       30.02R
AINSWORTH      RAIN      56  55  97 E8        30.04R
O`NEILL        CLOUDY    58  56  92 E5        30.05R
ORD            LGT RAIN  57  54  89 E6        30.01R
BROKEN BOW     CLOUDY    57  56  96 E12       30.01R
VALENTINE NWR    N/A     54  54  99 E10         N/A
SPRINGVIEW       N/A     55  53  93 CALM        N/A
ROSE             N/A     56  56  99 NE7         N/A
NEWPORT          N/A     57  55  95 E7          N/A
SARGENT          N/A     56  55  95 E3          N/A
COMSTOCK         N/A     60  60  99 E8          N/A
EWING            N/A     58  56  92 E3          N/A
$$

...OBSERVATIONS IN SOUTHWEST NEBRASKA AND FAR NORTHEAST COLORADO...

CITY           SKY/WX    TMP DP  RH WIND       PRES   REMARKS
WRAY           TSTM     N/A N/A N/A SW9       29.91R
IMPERIAL       CLOUDY    59  54  83 E13       29.91F
OGALLALA       LGT RAIN  55  55  97 E16G22    29.93F
NORTH PLATTE   LGT RAIN  56  54  93 E14       29.98F
MCCOOK         CLOUDY    58  56  93 E15       29.93F
LEXINGTON      LGT RAIN  58  57  94 E10       29.98S
PAXTON           N/A     56  54  94 E12         N/A
GOTHENBURG       N/A     56  53  90 E10         N/A
CALLAWAY         N/A     55  55  99 E12         N/A
$$

...NORTH PLATTE AREA...

CITY           SKY/WX    TMP DP  RH WIND       PRES   REMARKS
AIRPORT        LGT RAIN  56  54  93 E14       29.98F
DOWNTOWN         N/A     55  53  95 E3G12       N/A
$$

...SOME WEATHER OBSERVATIONS FROM AROUND THE REGION...

CITY           SKY/WX    TMP DP  RH WIND       PRES   REMARKS
DENVER         MOCLDY    51  45  79 NW9       29.93R
LARAMIE        CLOUDY    45  38  76 N16       29.96R
CHEYENNE       CLOUDY    47  43  86 NE7       29.95R
SCOTTSBLUFF    LGT RAIN  55  54  96 SE6       29.92S
RAPID CITY     LGT RAIN  54  53  97 E13       30.02S FOG
PIERRE         CLOUDY    60  53  77 SE14      30.04S
WINNER         LGT RAIN  57  54  89 E8        30.05S FOG
SIOUX FALLS    CLOUDY    63  54  72 SW3       30.08R
OMAHA          CLOUDY    63  60  90 SE7       30.04R
GRAND ISLAND   CLOUDY    59  56  89 E12       30.01R
KANSAS CITY    RAIN      62  61  96 E9        30.06F FOG
WICHITA        LGT RAIN  60  58  92 E24       29.79F
HAYS           CLOUDY    59  52  77 E10       29.91S
LIBERAL        CLOUDY    61  55  82 SE14      29.87R
GOODLAND       HVY RAIN  56  50  80 SE15      29.90F
$$



USA.gov is the U.S. government's official web portal to all federal, state and local government web resources and services.